Home > Weather > Burlington > Past weeks

Flag for Canada Weather for the Past 2 Weeks in Burlington, Ontario, Canada

Now
39 °F

Chilly.


Feels Like: 31 °F
Forecast: 37 / 44 °F
Wind: 14 mph from Northeast

Location: Burlington Piers

Current Time: Feb 8, 2016 at 2:13:54 PM

Latest Report: Feb 8, 2016 at 1:00 PM


Visibility: N/A

Pressure: 29.61 "Hg

Humidity: 86%

Dew point: 35 °F

Location of BurlingtonLocation

Historic Weather in Burlington — Graph

°F

Burlington Temperature Yesterday

Maximum temperature yesterday: 44 °F (at 2:00 PM)
Minimum temperature yesterday: 31 °F (at 7:00 AM)
Average temperature yesterday: 38 °F

High & Low Weather Summary for the Past Weeks

 TemperatureHumidityPressure
High58 °F (Feb 3, 2:00 PM)96% (Feb 3, 6:00 AM)30.35 "Hg (Feb 3, 6:00 AM)
Low19 °F (Jan 29, 10:00 AM)44% (Feb 5, 4:00 PM)29.46 "Hg (Jan 31, 10:00 PM)
Average36 °F70%29.92 "Hg
* Reported Jan 24 1:00 PM — Feb 8 1:00 PM, Burlington, Weather by CustomWeather, © 2016

Note: Actual official high and low records may vary slightly from our data, if they occured in-between our weather recording intervals... More about our weather records

Advertising

Burlington Weather History for the Previous 24 Hours

 ConditionsComfort  
Time TempWeatherWind HumidityBarometerVisibility
1:00 PM
Mon, Feb 8
39 °FChilly.14 mph86%29.61 "HgN/A
12:00 PM40 °FChilly.10 mph84%29.64 "HgN/A
11:00 AM39 °FChilly.7 mph88%29.66 "HgN/A
10:00 AM39 °FChilly.5 mph85%29.67 "HgN/A
9:00 AM39 °FChilly.9 mph84%29.68 "HgN/A
8:00 AM39 °FChilly.13 mph93%29.68 "HgN/A
7:00 AM38 °FChilly.7 mph90%29.69 "HgN/A
6:00 AM38 °FChilly.8 mph89%29.69 "HgN/A
5:00 AM39 °FChilly.8 mph87%29.70 "HgN/A
4:00 AM39 °FChilly.8 mph85%29.71 "HgN/A
3:00 AM39 °FChilly.10 mph88%29.74 "HgN/A
2:00 AM40 °FChilly.5 mph81%29.75 "HgN/A
1:00 AM39 °FChilly.12 mph89%29.78 "HgN/A
12:00 AM39 °FChilly.7 mph84%29.81 "HgN/A
11:00 PM
Sun, Feb 7
39 °FChilly.10 mph82%29.82 "HgN/A
10:00 PM40 °FChilly.7 mph86%29.83 "HgN/A
9:00 PM40 °FChilly.6 mph83%29.85 "HgN/A
8:00 PM40 °FQuite cool.7 mph83%29.86 "HgN/A
7:00 PM41 °FQuite cool.7 mph77%29.87 "HgN/A
6:00 PM43 °FQuite cool.8 mph52%29.87 "HgN/A
5:00 PM44 °FQuite cool.10 mph49%29.88 "HgN/A
4:00 PM44 °FQuite cool.7 mph50%29.90 "HgN/A
3:00 PM44 °FQuite cool.10 mph51%29.91 "HgN/A
2:00 PM44 °FQuite cool.14 mph49%29.92 "HgN/A
Weather by CustomWeather, © 2016

See weather overviewHow to use our weather pages